Location: Hilton Head Island
(32.2163°N, 80.7526°W)
Time: 13:56:49
(UTC-04:00)

Transit 2A Rocket - Pass Details

Date: 08 February 2026
Orbit: 583 x 900 km, 66.7° (Epoch: 12 March)

Event Time Altitude Azimuth Distance (km) Brightness Sun altitude
Rises 03:16:58 0° 345° (NNW) 3,360 - -49.8°
Reaches altitude 10° 03:19:49 10° 356° (N) 2,373 - -49.2°
Maximum altitude 03:24:30 29° 56° (NE) 1,355 - -48.3°
Drops below altitude 10° 03:28:50 10° 116° (ESE) 2,177 - -47.4°
Sets 03:31:20 0° 128° (SE) 3,037 - -46.9°
